Year,Month,Day,Hour,Minute,Value (Times are PST for temperature in C)
2017,08,08,00,00,18.30
2017,08,08,00,01,18.30
2017,08,08,00,02,18.30
2017,08,08,00,03,18.30
2017,08,08,00,04,18.30
2017,08,08,00,05,18.30
2017,08,08,00,06,18.30
2017,08,08,00,07,18.30
2017,08,08,00,08,18.30
2017,08,08,00,09,18.20
2017,08,08,00,10,18.20
2017,08,08,00,11,18.20
2017,08,08,00,12,18.20
2017,08,08,00,13,18.30
2017,08,08,00,14,18.30
2017,08,08,00,15,18.30
2017,08,08,00,16,18.30
2017,08,08,00,17,18.30
2017,08,08,00,18,18.30
2017,08,08,00,19,18.30
2017,08,08,00,20,18.30
2017,08,08,00,21,18.30
2017,08,08,00,22,18.30
2017,08,08,00,23,18.30
2017,08,08,00,24,18.30
2017,08,08,00,25,18.20
2017,08,08,00,26,18.20
2017,08,08,00,27,18.20
2017,08,08,00,28,18.20
2017,08,08,00,29,18.20
2017,08,08,00,30,18.20
2017,08,08,00,31,18.20
2017,08,08,00,32,18.20
2017,08,08,00,33,18.20
2017,08,08,00,34,18.30
2017,08,08,00,35,18.30
2017,08,08,00,36,18.30
2017,08,08,00,37,18.20
2017,08,08,00,38,18.30
2017,08,08,00,39,18.30
2017,08,08,00,40,18.30
2017,08,08,00,41,18.30
2017,08,08,00,42,18.20
2017,08,08,00,43,18.20
2017,08,08,00,44,18.20
2017,08,08,00,45,18.20
2017,08,08,00,46,18.20
2017,08,08,00,47,18.20
2017,08,08,00,48,18.20
2017,08,08,00,49,18.20
2017,08,08,00,50,18.20
2017,08,08,00,51,18.20
2017,08,08,00,52,18.20
2017,08,08,00,53,18.20
2017,08,08,00,54,18.20
2017,08,08,00,55,18.20
2017,08,08,00,56,18.20
2017,08,08,00,57,18.20
2017,08,08,00,58,18.20
2017,08,08,00,59,18.20
2017,08,08,01,00,18.20
2017,08,08,01,01,18.20
2017,08,08,01,02,18.10
2017,08,08,01,03,18.10
2017,08,08,01,04,18.10
2017,08,08,01,05,18.10
2017,08,08,01,06,18.10
2017,08,08,01,07,18.10
2017,08,08,01,08,18.10
2017,08,08,01,09,18.10
2017,08,08,01,10,18.10
2017,08,08,01,11,18.10
2017,08,08,01,12,18.10
2017,08,08,01,13,18.10
2017,08,08,01,14,18.10
2017,08,08,01,15,18.00
2017,08,08,01,16,18.00
2017,08,08,01,17,18.00
2017,08,08,01,18,18.00
2017,08,08,01,19,17.90
2017,08,08,01,20,17.90
2017,08,08,01,21,17.90
2017,08,08,01,22,17.90
2017,08,08,01,23,17.90
2017,08,08,01,24,17.90
2017,08,08,01,25,17.80
2017,08,08,01,26,17.80
2017,08,08,01,27,17.80
2017,08,08,01,28,17.80
2017,08,08,01,29,17.80
2017,08,08,01,30,17.80
2017,08,08,01,31,17.80
2017,08,08,01,32,17.70
2017,08,08,01,33,17.70
2017,08,08,01,34,17.70
2017,08,08,01,35,17.70
2017,08,08,01,36,17.70
2017,08,08,01,37,17.70
2017,08,08,01,38,17.70
2017,08,08,01,39,17.70
2017,08,08,01,40,17.70
2017,08,08,01,41,17.70
2017,08,08,01,42,17.70
2017,08,08,01,43,17.70
2017,08,08,01,44,17.70
2017,08,08,01,45,17.70
2017,08,08,01,46,17.70
2017,08,08,01,47,17.70
2017,08,08,01,48,17.70
2017,08,08,01,49,17.70
2017,08,08,01,50,17.70
2017,08,08,01,51,17.80
2017,08,08,01,52,17.80
2017,08,08,01,53,17.80
2017,08,08,01,54,17.80
2017,08,08,01,55,17.70
2017,08,08,01,56,17.70
2017,08,08,01,57,17.70
2017,08,08,01,58,17.70
2017,08,08,01,59,17.70
2017,08,08,02,00,17.70
2017,08,08,02,01,17.70
2017,08,08,02,02,17.70
2017,08,08,02,03,17.70
2017,08,08,02,04,17.70
2017,08,08,02,05,17.60
2017,08,08,02,06,17.60
2017,08,08,02,07,17.60
2017,08,08,02,08,17.60
2017,08,08,02,09,17.60
2017,08,08,02,10,17.60
2017,08,08,02,11,17.50
2017,08,08,02,12,17.50
2017,08,08,02,13,17.50
2017,08,08,02,14,17.50
2017,08,08,02,15,17.50
2017,08,08,02,16,17.50
2017,08,08,02,17,17.40
2017,08,08,02,18,17.40
2017,08,08,02,19,17.40
2017,08,08,02,20,17.40
2017,08,08,02,21,17.40
2017,08,08,02,22,17.40
2017,08,08,02,23,17.40
2017,08,08,02,24,17.40
2017,08,08,02,25,17.40
2017,08,08,02,26,17.40
2017,08,08,02,27,17.40
2017,08,08,02,28,17.40
2017,08,08,02,29,17.30
2017,08,08,02,30,17.30
2017,08,08,02,31,17.30
2017,08,08,02,32,17.30
2017,08,08,02,33,17.30
2017,08,08,02,34,17.30
2017,08,08,02,35,17.30
2017,08,08,02,36,17.20
2017,08,08,02,37,17.20
2017,08,08,02,38,17.20
2017,08,08,02,39,17.20
2017,08,08,02,40,17.20
2017,08,08,02,41,17.20
2017,08,08,02,42,17.20
2017,08,08,02,43,17.20
2017,08,08,02,44,17.10
2017,08,08,02,45,17.10
2017,08,08,02,46,17.10
2017,08,08,02,47,17.10
2017,08,08,02,48,17.10
2017,08,08,02,49,17.10
2017,08,08,02,50,17.10
2017,08,08,02,51,17.10
2017,08,08,02,52,17.10
2017,08,08,02,53,17.10
2017,08,08,02,54,17.10
2017,08,08,02,55,17.10
2017,08,08,02,56,17.10
2017,08,08,02,57,17.10
2017,08,08,02,58,17.10
2017,08,08,02,59,17.10
2017,08,08,03,00,17.10
2017,08,08,03,01,17.10
2017,08,08,03,02,17.10
2017,08,08,03,03,17.00
2017,08,08,03,04,17.10
2017,08,08,03,05,17.00
2017,08,08,03,06,17.00
2017,08,08,03,07,17.00
2017,08,08,03,08,17.00
2017,08,08,03,09,17.00
2017,08,08,03,10,17.00
2017,08,08,03,11,17.00
2017,08,08,03,12,17.00
2017,08,08,03,13,17.00
2017,08,08,03,14,17.00
2017,08,08,03,15,17.00
2017,08,08,03,16,17.10
2017,08,08,03,17,17.10
2017,08,08,03,18,17.10
2017,08,08,03,19,17.10
2017,08,08,03,20,17.10
2017,08,08,03,21,17.00
2017,08,08,03,22,17.00
2017,08,08,03,23,17.00
2017,08,08,03,24,17.00
2017,08,08,03,25,17.00
2017,08,08,03,26,17.00
2017,08,08,03,27,17.00
2017,08,08,03,28,17.00
2017,08,08,03,29,17.00
2017,08,08,03,30,17.00
2017,08,08,03,31,17.00
2017,08,08,03,32,17.00
2017,08,08,03,33,17.00
2017,08,08,03,34,17.00
2017,08,08,03,35,17.00
2017,08,08,03,36,17.00
2017,08,08,03,37,17.00
2017,08,08,03,38,17.00
2017,08,08,03,39,17.00
2017,08,08,03,40,17.00
2017,08,08,03,41,17.00
2017,08,08,03,42,16.90
2017,08,08,03,43,16.90
2017,08,08,03,44,16.90
2017,08,08,03,45,16.90
2017,08,08,03,46,16.90
2017,08,08,03,47,16.90
2017,08,08,03,48,16.90
2017,08,08,03,49,16.90
2017,08,08,03,50,16.80
2017,08,08,03,51,16.80
2017,08,08,03,52,16.80
2017,08,08,03,53,16.80
2017,08,08,03,54,16.80
2017,08,08,03,55,16.80
2017,08,08,03,56,16.80
2017,08,08,03,57,16.80
2017,08,08,03,58,16.70
2017,08,08,03,59,16.70
2017,08,08,04,00,16.70
2017,08,08,04,01,16.70
2017,08,08,04,02,16.70
2017,08,08,04,03,16.80
2017,08,08,04,04,16.80
2017,08,08,04,05,16.80
2017,08,08,04,06,16.80
2017,08,08,04,07,16.80
2017,08,08,04,08,16.80
2017,08,08,04,09,16.80
2017,08,08,04,10,16.80
2017,08,08,04,11,16.80
2017,08,08,04,12,16.80
2017,08,08,04,13,16.80
2017,08,08,04,14,16.80
2017,08,08,04,15,16.80
2017,08,08,04,16,16.80
2017,08,08,04,17,16.80
2017,08,08,04,18,16.90
2017,08,08,04,19,16.90
2017,08,08,04,20,16.90
2017,08,08,04,21,16.90
2017,08,08,04,22,16.90
2017,08,08,04,23,16.90
2017,08,08,04,24,16.90
2017,08,08,04,25,16.90
2017,08,08,04,26,16.90
2017,08,08,04,27,16.90
2017,08,08,04,28,16.90
2017,08,08,04,29,16.90
2017,08,08,04,30,16.90
2017,08,08,04,31,16.90
2017,08,08,04,32,16.80
2017,08,08,04,33,16.80
2017,08,08,04,34,16.80
2017,08,08,04,35,16.80
2017,08,08,04,36,16.80
2017,08,08,04,37,16.80
2017,08,08,04,38,16.80
2017,08,08,04,39,16.80
2017,08,08,04,40,16.80
2017,08,08,04,41,16.80
2017,08,08,04,42,16.70
2017,08,08,04,43,16.70
2017,08,08,04,44,16.70
2017,08,08,04,45,16.70
2017,08,08,04,46,16.70
2017,08,08,04,47,16.70
2017,08,08,04,48,16.70
2017,08,08,04,49,16.60
2017,08,08,04,50,16.60
2017,08,08,04,51,16.60
2017,08,08,04,52,16.60
2017,08,08,04,53,16.60
2017,08,08,04,54,16.60
2017,08,08,04,55,16.60
2017,08,08,04,56,16.50
2017,08,08,04,57,16.50
2017,08,08,04,58,16.50
2017,08,08,04,59,16.50
2017,08,08,05,00,16.40
2017,08,08,05,01,16.40
2017,08,08,05,02,16.40
2017,08,08,05,03,16.40
2017,08,08,05,04,16.40
2017,08,08,05,05,16.40
2017,08,08,05,06,16.40
2017,08,08,05,07,16.40
2017,08,08,05,08,16.30
2017,08,08,05,09,16.30
2017,08,08,05,10,16.30
2017,08,08,05,11,16.30
2017,08,08,05,12,16.30
2017,08,08,05,13,16.30
2017,08,08,05,14,16.30
2017,08,08,05,15,16.30
2017,08,08,05,16,16.30
2017,08,08,05,17,16.20
2017,08,08,05,18,16.20
2017,08,08,05,19,16.20
2017,08,08,05,20,16.20
2017,08,08,05,21,16.20
2017,08,08,05,22,16.20
2017,08,08,05,23,16.20
2017,08,08,05,24,16.20
2017,08,08,05,25,16.20
2017,08,08,05,26,16.20
2017,08,08,05,27,16.20
2017,08,08,05,28,16.20
2017,08,08,05,29,16.20
2017,08,08,05,30,16.20
2017,08,08,05,31,16.20
2017,08,08,05,32,16.20
2017,08,08,05,33,16.10
2017,08,08,05,34,16.10
2017,08,08,05,35,16.10
2017,08,08,05,36,16.10
2017,08,08,05,37,16.10
2017,08,08,05,38,16.10
2017,08,08,05,39,16.10
2017,08,08,05,40,16.10
2017,08,08,05,41,16.10
2017,08,08,05,42,16.10
2017,08,08,05,43,16.10
2017,08,08,05,44,16.10
2017,08,08,05,45,16.10
2017,08,08,05,46,16.10
2017,08,08,05,47,16.10
2017,08,08,05,48,16.10
2017,08,08,05,49,16.00
2017,08,08,05,50,16.00
2017,08,08,05,51,16.00
2017,08,08,05,52,16.00
2017,08,08,05,53,16.00
2017,08,08,05,54,16.00
2017,08,08,05,55,16.00
2017,08,08,05,56,16.00
2017,08,08,05,57,16.00
2017,08,08,05,58,16.00
2017,08,08,05,59,16.00
2017,08,08,06,00,16.00
2017,08,08,06,01,16.00
2017,08,08,06,02,16.00
2017,08,08,06,03,16.00
2017,08,08,06,04,16.00
2017,08,08,06,05,16.00
2017,08,08,06,06,16.00
2017,08,08,06,07,16.00
2017,08,08,06,08,16.00
2017,08,08,06,09,16.00
2017,08,08,06,10,16.00
2017,08,08,06,11,16.00
2017,08,08,06,12,16.00
2017,08,08,06,13,16.00
2017,08,08,06,14,16.00
2017,08,08,06,15,15.90
2017,08,08,06,16,15.90
2017,08,08,06,17,15.90
2017,08,08,06,18,15.90
2017,08,08,06,19,15.90
2017,08,08,06,20,15.90
2017,08,08,06,21,15.90
2017,08,08,06,22,15.90
2017,08,08,06,23,15.90
2017,08,08,06,24,15.90
2017,08,08,06,25,15.90
2017,08,08,06,26,15.90
2017,08,08,06,27,15.90
2017,08,08,06,28,15.90
2017,08,08,06,29,15.90
2017,08,08,06,30,15.90
2017,08,08,06,31,15.90
2017,08,08,06,32,15.90
2017,08,08,06,33,15.90
2017,08,08,06,34,15.90
2017,08,08,06,35,15.90
2017,08,08,06,36,15.90
2017,08,08,06,37,15.90
2017,08,08,06,38,15.90
2017,08,08,06,39,15.90
2017,08,08,06,40,15.90
2017,08,08,06,41,15.90
2017,08,08,06,42,15.90
2017,08,08,06,43,15.90
2017,08,08,06,44,15.90
2017,08,08,06,45,15.90
2017,08,08,06,46,15.90
2017,08,08,06,47,15.90
2017,08,08,06,48,15.90
2017,08,08,06,49,15.90
2017,08,08,06,50,15.90
2017,08,08,06,51,15.90
2017,08,08,06,52,15.90
2017,08,08,06,53,15.90
2017,08,08,06,54,15.90
2017,08,08,06,55,15.80
2017,08,08,06,56,15.80
2017,08,08,06,57,15.80
2017,08,08,06,58,15.80
2017,08,08,06,59,15.80
2017,08,08,07,00,15.80
2017,08,08,07,01,15.80
2017,08,08,07,02,15.80
2017,08,08,07,03,15.80
2017,08,08,07,04,15.80
2017,08,08,07,05,15.80
2017,08,08,07,06,15.80
2017,08,08,07,07,15.80
2017,08,08,07,08,15.90
2017,08,08,07,09,15.90
2017,08,08,07,10,15.90
2017,08,08,07,11,15.90
2017,08,08,07,12,15.90
2017,08,08,07,13,15.90
2017,08,08,07,14,15.90
2017,08,08,07,15,16.00
2017,08,08,07,16,16.00
2017,08,08,07,17,16.00
2017,08,08,07,18,16.00
2017,08,08,07,19,16.10
2017,08,08,07,20,16.10
2017,08,08,07,21,16.10
2017,08,08,07,22,16.10
2017,08,08,07,23,16.10
2017,08,08,07,24,16.10
2017,08,08,07,25,16.10
2017,08,08,07,26,16.10
2017,08,08,07,27,16.10
2017,08,08,07,28,16.10
2017,08,08,07,29,16.20
2017,08,08,07,30,16.20
2017,08,08,07,31,16.20
2017,08,08,07,32,16.20
2017,08,08,07,33,16.20
2017,08,08,07,34,16.20
2017,08,08,07,35,16.20
2017,08,08,07,36,16.20
2017,08,08,07,37,16.30
2017,08,08,07,38,16.30
2017,08,08,07,39,16.30
2017,08,08,07,40,16.30
2017,08,08,07,41,16.30
2017,08,08,07,42,16.30
2017,08,08,07,43,16.30
2017,08,08,07,44,16.30
2017,08,08,07,45,16.40
2017,08,08,07,46,16.40
2017,08,08,07,47,16.40
2017,08,08,07,48,16.40
2017,08,08,07,49,16.40
2017,08,08,07,50,16.50
2017,08,08,07,51,16.50
2017,08,08,07,52,16.50
2017,08,08,07,53,16.60
2017,08,08,07,54,16.60
2017,08,08,07,55,16.60
2017,08,08,07,56,16.60
2017,08,08,07,57,16.60
2017,08,08,07,58,16.70
2017,08,08,07,59,16.70
2017,08,08,08,00,16.70
2017,08,08,08,01,16.70
2017,08,08,08,02,16.70
2017,08,08,08,03,16.80
2017,08,08,08,04,16.80
2017,08,08,08,05,16.80
2017,08,08,08,06,16.80
2017,08,08,08,07,16.90
2017,08,08,08,08,16.90
2017,08,08,08,09,16.90
2017,08,08,08,10,16.90
2017,08,08,08,11,17.00
2017,08,08,08,12,17.00
2017,08,08,08,13,17.10
2017,08,08,08,14,17.10
2017,08,08,08,15,17.10
2017,08,08,08,16,17.10
2017,08,08,08,17,17.10
2017,08,08,08,18,17.20
2017,08,08,08,19,17.20
2017,08,08,08,20,17.20
2017,08,08,08,21,17.30
2017,08,08,08,22,17.30
2017,08,08,08,23,17.30
2017,08,08,08,24,17.40
2017,08,08,08,25,17.40
2017,08,08,08,26,17.40
2017,08,08,08,27,17.40
2017,08,08,08,28,17.50
2017,08,08,08,29,17.50
2017,08,08,08,30,17.60
2017,08,08,08,31,17.60
2017,08,08,08,32,17.60
2017,08,08,08,33,17.70
2017,08,08,08,34,17.70
2017,08,08,08,35,17.80
2017,08,08,08,36,17.80
2017,08,08,08,37,17.80
2017,08,08,08,38,17.80
2017,08,08,08,39,17.90
2017,08,08,08,40,17.90
2017,08,08,08,41,18.00
2017,08,08,08,42,18.10
2017,08,08,08,43,18.10
2017,08,08,08,44,18.20
2017,08,08,08,45,18.20
2017,08,08,08,46,18.20
2017,08,08,08,47,18.20
2017,08,08,08,48,18.30
2017,08,08,08,49,18.30
2017,08,08,08,50,18.30
2017,08,08,08,51,18.30
2017,08,08,08,52,18.30
2017,08,08,08,53,18.30
2017,08,08,08,54,18.30
2017,08,08,08,55,18.30
2017,08,08,08,56,18.30
2017,08,08,08,57,18.30
2017,08,08,08,58,18.40
2017,08,08,08,59,18.40
2017,08,08,09,00,18.40
2017,08,08,09,01,18.40
2017,08,08,09,02,18.50
2017,08,08,09,03,18.50
2017,08,08,09,04,18.60
2017,08,08,09,05,18.60
2017,08,08,09,06,18.70
2017,08,08,09,07,18.70
2017,08,08,09,08,18.80
2017,08,08,09,09,18.90
2017,08,08,09,10,19.00
2017,08,08,09,11,19.00
2017,08,08,09,12,19.10
2017,08,08,09,13,19.20
2017,08,08,09,14,19.30
2017,08,08,09,15,19.30
2017,08,08,09,16,19.40
2017,08,08,09,17,19.40
2017,08,08,09,18,19.50
2017,08,08,09,19,19.60
2017,08,08,09,20,19.60
2017,08,08,09,21,19.60
2017,08,08,09,22,19.70
2017,08,08,09,23,19.70
2017,08,08,09,24,19.70
2017,08,08,09,25,19.80
2017,08,08,09,26,19.80
2017,08,08,09,27,19.80
2017,08,08,09,28,19.80
2017,08,08,09,29,19.90
2017,08,08,09,30,19.90
2017,08,08,09,31,19.90
2017,08,08,09,32,20.00
2017,08,08,09,33,20.00
2017,08,08,09,34,20.10
2017,08,08,09,35,20.20
2017,08,08,09,36,20.20
2017,08,08,09,37,20.30
2017,08,08,09,38,20.30
2017,08,08,09,39,20.30
2017,08,08,09,40,20.40
2017,08,08,09,41,20.40
2017,08,08,09,42,20.40
2017,08,08,09,43,20.50
2017,08,08,09,44,20.50
2017,08,08,09,45,20.60
2017,08,08,09,46,20.60
2017,08,08,09,47,20.70
2017,08,08,09,48,20.70
2017,08,08,09,49,20.80
2017,08,08,09,50,20.80
2017,08,08,09,51,20.80
2017,08,08,09,52,20.90
2017,08,08,09,53,20.90
2017,08,08,09,54,20.90
2017,08,08,09,55,21.00
2017,08,08,09,56,21.00
2017,08,08,09,57,21.10
2017,08,08,09,58,21.10
2017,08,08,09,59,21.20
2017,08,08,10,00,21.20
2017,08,08,10,01,21.30
2017,08,08,10,02,21.40
2017,08,08,10,03,21.40
2017,08,08,10,04,21.50
2017,08,08,10,05,21.50
2017,08,08,10,06,21.60
2017,08,08,10,07,21.70
2017,08,08,10,08,21.80
2017,08,08,10,09,21.80
2017,08,08,10,10,22.00
2017,08,08,10,11,22.10
2017,08,08,10,12,22.20
2017,08,08,10,13,22.30
2017,08,08,10,14,22.30
2017,08,08,10,15,22.40
2017,08,08,10,16,22.50
2017,08,08,10,17,22.50
2017,08,08,10,18,22.60
2017,08,08,10,19,22.60
2017,08,08,10,20,22.70
2017,08,08,10,21,22.80
2017,08,08,10,22,22.80
2017,08,08,10,23,22.90
2017,08,08,10,24,22.90
2017,08,08,10,25,23.00
2017,08,08,10,26,23.10
2017,08,08,10,27,23.10
2017,08,08,10,28,23.20
2017,08,08,10,29,23.30
2017,08,08,10,30,23.30
2017,08,08,10,31,23.40
2017,08,08,10,32,23.40
2017,08,08,10,33,23.50
2017,08,08,10,34,23.60
2017,08,08,10,35,23.60
2017,08,08,10,36,23.70
2017,08,08,10,37,23.80
2017,08,08,10,38,23.80
2017,08,08,10,39,23.90
2017,08,08,10,40,24.00
2017,08,08,10,41,24.00
2017,08,08,10,42,24.10
2017,08,08,10,43,24.10
2017,08,08,10,44,24.10
2017,08,08,10,45,24.10
2017,08,08,10,46,24.10
2017,08,08,10,47,24.10
2017,08,08,10,48,24.00
2017,08,08,10,49,24.00
2017,08,08,10,50,24.00
2017,08,08,10,51,24.00
2017,08,08,10,52,24.00
2017,08,08,10,53,24.00
2017,08,08,10,54,24.10
2017,08,08,10,55,24.10
2017,08,08,10,56,24.10
2017,08,08,10,57,24.10
2017,08,08,10,58,24.10
2017,08,08,10,59,24.10
2017,08,08,11,00,24.20
2017,08,08,11,01,24.20
2017,08,08,11,02,24.30
2017,08,08,11,03,24.40
2017,08,08,11,04,24.40
2017,08,08,11,05,24.50
2017,08,08,11,06,24.60
2017,08,08,11,07,24.60
2017,08,08,11,08,24.70
2017,08,08,11,09,24.70
2017,08,08,11,10,24.80
2017,08,08,11,11,24.80
2017,08,08,11,12,24.90
2017,08,08,11,13,24.90
2017,08,08,11,14,24.90
2017,08,08,11,15,24.90
2017,08,08,11,16,24.90
2017,08,08,11,17,24.90
2017,08,08,11,18,24.90
2017,08,08,11,19,24.90
2017,08,08,11,20,25.00
2017,08,08,11,21,25.00
2017,08,08,11,22,25.10
2017,08,08,11,23,25.10
2017,08,08,11,24,25.10
2017,08,08,11,25,25.20
2017,08,08,11,26,25.20
2017,08,08,11,27,25.30
2017,08,08,11,28,25.30
2017,08,08,11,29,25.40
2017,08,08,11,30,25.40
2017,08,08,11,31,25.40
2017,08,08,11,32,25.40
2017,08,08,11,33,25.40
2017,08,08,11,34,25.40
2017,08,08,11,35,25.40
2017,08,08,11,36,25.50
2017,08,08,11,37,25.50
2017,08,08,11,38,25.60
2017,08,08,11,39,25.60
2017,08,08,11,40,25.60
2017,08,08,11,41,25.60
2017,08,08,11,42,25.60
2017,08,08,11,43,25.60
2017,08,08,11,44,25.60
2017,08,08,11,45,25.60
2017,08,08,11,46,25.60
2017,08,08,11,47,25.60
2017,08,08,11,48,25.70
2017,08,08,11,49,25.70
2017,08,08,11,50,25.70
2017,08,08,11,51,25.80
2017,08,08,11,52,25.80
2017,08,08,11,53,25.80
2017,08,08,11,54,25.80
2017,08,08,11,55,25.70
2017,08,08,11,56,25.70
2017,08,08,11,57,25.80
2017,08,08,11,58,25.80
2017,08,08,11,59,25.80
2017,08,08,12,00,25.90
2017,08,08,12,01,25.90
2017,08,08,12,02,25.90
2017,08,08,12,03,25.90
2017,08,08,12,04,26.00
2017,08,08,12,05,26.10
2017,08,08,12,06,26.20
2017,08,08,12,07,26.20
2017,08,08,12,08,26.20
2017,08,08,12,09,26.20
2017,08,08,12,10,26.20
2017,08,08,12,11,26.20
2017,08,08,12,12,26.30
2017,08,08,12,13,26.30
2017,08,08,12,14,26.30
2017,08,08,12,15,26.30
2017,08,08,12,16,26.30
2017,08,08,12,17,26.40
2017,08,08,12,18,26.40
2017,08,08,12,19,26.50
2017,08,08,12,20,26.60
2017,08,08,12,21,26.60
2017,08,08,12,22,26.70
2017,08,08,12,23,26.80
2017,08,08,12,24,26.80
2017,08,08,12,25,26.80
2017,08,08,12,26,26.90
2017,08,08,12,27,26.90
2017,08,08,12,28,27.00
2017,08,08,12,29,27.10
2017,08,08,12,30,27.10
2017,08,08,12,31,27.20
2017,08,08,12,32,27.20
2017,08,08,12,33,27.30
2017,08,08,12,34,27.30
2017,08,08,12,35,27.30
2017,08,08,12,36,27.30
2017,08,08,12,37,27.30
2017,08,08,12,38,27.30
2017,08,08,12,39,27.30
2017,08,08,12,40,27.30
2017,08,08,12,41,27.30
2017,08,08,12,42,27.30
2017,08,08,12,43,27.30
2017,08,08,12,44,27.30
2017,08,08,12,45,27.30
2017,08,08,12,46,27.30
2017,08,08,12,47,27.30
2017,08,08,12,48,27.30
2017,08,08,12,49,27.30
2017,08,08,12,50,27.40
2017,08,08,12,51,27.40
2017,08,08,12,52,27.40
2017,08,08,12,53,27.50
2017,08,08,12,54,27.50
2017,08,08,12,55,27.50
2017,08,08,12,56,27.50
2017,08,08,12,57,27.30
2017,08,08,12,58,27.20
2017,08,08,12,59,27.20
2017,08,08,13,00,27.20
2017,08,08,13,01,27.30
2017,08,08,13,02,27.30
2017,08,08,13,03,27.40
2017,08,08,13,04,27.40
2017,08,08,13,05,27.50
2017,08,08,13,06,27.60
2017,08,08,13,07,27.70
2017,08,08,13,08,27.80
2017,08,08,13,09,27.80
2017,08,08,13,10,27.80
2017,08,08,13,11,27.80
2017,08,08,13,12,27.90
2017,08,08,13,13,27.90
2017,08,08,13,14,28.00
2017,08,08,13,15,28.10
2017,08,08,13,16,28.10
2017,08,08,13,17,28.10
2017,08,08,13,18,28.20
2017,08,08,13,19,28.20
2017,08,08,13,20,28.20
2017,08,08,13,21,28.20
2017,08,08,13,22,28.30
2017,08,08,13,23,28.30
2017,08,08,13,24,28.30
2017,08,08,13,25,28.30
2017,08,08,13,26,28.40
2017,08,08,13,27,28.40
2017,08,08,13,28,28.40
2017,08,08,13,29,28.40
2017,08,08,13,30,28.40
2017,08,08,13,31,28.40
2017,08,08,13,32,28.40
2017,08,08,13,33,28.40
2017,08,08,13,34,28.50
2017,08,08,13,35,28.50
2017,08,08,13,36,28.60
2017,08,08,13,37,28.60
2017,08,08,13,38,28.70
2017,08,08,13,39,28.70
2017,08,08,13,40,28.70
2017,08,08,13,41,28.70
2017,08,08,13,42,28.80
2017,08,08,13,43,28.80
2017,08,08,13,44,28.80
2017,08,08,13,45,28.90
2017,08,08,13,46,29.00
2017,08,08,13,47,29.00
2017,08,08,13,48,29.10
2017,08,08,13,49,29.10
2017,08,08,13,50,29.20
2017,08,08,13,51,29.20
2017,08,08,13,52,29.20
2017,08,08,13,53,29.20
2017,08,08,13,54,29.30
2017,08,08,13,55,29.20
2017,08,08,13,56,29.20
2017,08,08,13,57,29.20
2017,08,08,13,58,29.10
2017,08,08,13,59,29.10
2017,08,08,14,00,29.10
2017,08,08,14,01,29.10
2017,08,08,14,02,29.10
2017,08,08,14,03,29.10
2017,08,08,14,04,29.20
2017,08,08,14,05,29.20
2017,08,08,14,06,29.20
2017,08,08,14,07,29.20
2017,08,08,14,08,29.30
2017,08,08,14,09,29.30
2017,08,08,14,10,29.30
2017,08,08,14,11,29.30
2017,08,08,14,12,29.30
2017,08,08,14,13,29.30
2017,08,08,14,14,29.30
2017,08,08,14,15,29.30
2017,08,08,14,16,29.30
2017,08,08,14,17,29.30
2017,08,08,14,18,29.30
2017,08,08,14,19,29.30
2017,08,08,14,20,29.30
2017,08,08,14,21,29.30
2017,08,08,14,22,29.20
2017,08,08,14,23,29.10
2017,08,08,14,24,29.10
2017,08,08,14,25,29.10
2017,08,08,14,26,29.00
2017,08,08,14,27,29.00
2017,08,08,14,28,29.10
2017,08,08,14,29,29.10
2017,08,08,14,30,29.10
2017,08,08,14,31,29.20
2017,08,08,14,32,29.20
2017,08,08,14,33,29.30
2017,08,08,14,34,29.40
2017,08,08,14,35,29.40
2017,08,08,14,36,29.50
2017,08,08,14,37,29.50
2017,08,08,14,38,29.60
2017,08,08,14,39,29.70
2017,08,08,14,40,29.70
2017,08,08,14,41,29.80
2017,08,08,14,42,29.90
2017,08,08,14,43,29.90
2017,08,08,14,44,30.00
2017,08,08,14,45,30.10
2017,08,08,14,46,30.10
2017,08,08,14,47,30.10
2017,08,08,14,48,30.10
2017,08,08,14,49,30.00
2017,08,08,14,50,29.90
2017,08,08,14,51,29.90
2017,08,08,14,52,29.80
2017,08,08,14,53,29.80
2017,08,08,14,54,29.80
2017,08,08,14,55,29.80
2017,08,08,14,56,29.80
2017,08,08,14,57,29.80
2017,08,08,14,58,29.80
2017,08,08,14,59,29.90
2017,08,08,15,00,29.90
2017,08,08,15,01,30.00
2017,08,08,15,02,30.00
2017,08,08,15,03,30.00
2017,08,08,15,04,29.90
2017,08,08,15,05,29.80
2017,08,08,15,06,29.80
2017,08,08,15,07,29.80
2017,08,08,15,08,29.70
2017,08,08,15,09,29.70
2017,08,08,15,10,29.60
2017,08,08,15,11,29.60
2017,08,08,15,12,29.60
2017,08,08,15,13,29.50
2017,08,08,15,14,29.50
2017,08,08,15,15,29.50
2017,08,08,15,16,29.50
2017,08,08,15,17,29.50
2017,08,08,15,18,29.40
2017,08,08,15,19,29.40
2017,08,08,15,20,29.40
2017,08,08,15,21,29.50
2017,08,08,15,22,29.50
2017,08,08,15,23,29.60
2017,08,08,15,24,29.60
2017,08,08,15,25,29.50
2017,08,08,15,26,29.50
2017,08,08,15,27,29.40
2017,08,08,15,28,29.40
2017,08,08,15,29,29.40
2017,08,08,15,30,29.20
2017,08,08,15,31,29.10
2017,08,08,15,32,29.00
2017,08,08,15,33,28.90
2017,08,08,15,34,28.90
2017,08,08,15,35,28.80
2017,08,08,15,36,28.80
2017,08,08,15,37,28.80
2017,08,08,15,38,28.80
2017,08,08,15,39,28.80
2017,08,08,15,40,28.80
2017,08,08,15,41,28.90
2017,08,08,15,42,28.90
2017,08,08,15,43,28.90
2017,08,08,15,44,28.90
2017,08,08,15,45,28.90
2017,08,08,15,46,28.90
2017,08,08,15,47,28.80
2017,08,08,15,48,28.80
2017,08,08,15,49,28.80
2017,08,08,15,50,28.80
2017,08,08,15,51,28.70
2017,08,08,15,52,28.60
2017,08,08,15,53,28.50
2017,08,08,15,54,28.40
2017,08,08,15,55,28.40
2017,08,08,15,56,28.40
2017,08,08,15,57,28.40
2017,08,08,15,58,28.40
2017,08,08,15,59,28.40
2017,08,08,16,00,28.40
2017,08,08,16,01,28.40
2017,08,08,16,02,28.40
2017,08,08,16,03,28.40
2017,08,08,16,04,28.40
2017,08,08,16,05,28.40
2017,08,08,16,06,28.50
2017,08,08,16,07,28.50
2017,08,08,16,08,28.50
2017,08,08,16,09,28.60
2017,08,08,16,10,28.60
2017,08,08,16,11,28.70
2017,08,08,16,12,28.70
2017,08,08,16,13,28.70
2017,08,08,16,14,28.80
2017,08,08,16,15,28.80
2017,08,08,16,16,28.80
2017,08,08,16,17,28.80
2017,08,08,16,18,28.80
2017,08,08,16,19,28.80
2017,08,08,16,20,28.80
2017,08,08,16,21,28.80
2017,08,08,16,22,28.70
2017,08,08,16,23,28.70
2017,08,08,16,24,28.70
2017,08,08,16,25,28.70
2017,08,08,16,26,28.70
2017,08,08,16,27,28.70
2017,08,08,16,28,28.70
2017,08,08,16,29,28.70
2017,08,08,16,30,28.70
2017,08,08,16,31,28.70
2017,08,08,16,32,28.70
2017,08,08,16,33,28.60
2017,08,08,16,34,28.60
2017,08,08,16,35,28.60
2017,08,08,16,36,28.60
2017,08,08,16,37,28.60
2017,08,08,16,38,28.60
2017,08,08,16,39,28.50
2017,08,08,16,40,28.50
2017,08,08,16,41,28.40
2017,08,08,16,42,28.40
2017,08,08,16,43,28.40
2017,08,08,16,44,28.40
2017,08,08,16,45,28.40
2017,08,08,16,46,28.40
2017,08,08,16,47,28.40
2017,08,08,16,48,28.40
2017,08,08,16,49,28.30
2017,08,08,16,50,28.30
2017,08,08,16,51,28.30
2017,08,08,16,52,28.20
2017,08,08,16,53,28.20
2017,08,08,16,54,28.20
2017,08,08,16,55,28.10
2017,08,08,16,56,28.10
2017,08,08,16,57,28.10
2017,08,08,16,58,28.10
2017,08,08,16,59,28.00
2017,08,08,17,00,27.90
2017,08,08,17,01,27.90
2017,08,08,17,02,27.80
2017,08,08,17,03,27.80
2017,08,08,17,04,27.80
2017,08,08,17,05,27.80
2017,08,08,17,06,27.80
2017,08,08,17,07,27.70
2017,08,08,17,08,27.60
2017,08,08,17,09,27.60
2017,08,08,17,10,27.60
2017,08,08,17,11,27.60
2017,08,08,17,12,27.50
2017,08,08,17,13,27.50
2017,08,08,17,14,27.50
2017,08,08,17,15,27.50
2017,08,08,17,16,27.50
2017,08,08,17,17,27.50
2017,08,08,17,18,27.40
2017,08,08,17,19,27.40